User: anonymous   Login
Location: Caltech
(34.1382°N, 118.1253°W)
Time: 10:24:22
(UTC-07:00)
Language:

NOSS 3-2 (A) - Orbit

View from above orbital plane
View from above orbital plane
View from above satellite
View from above satellite

Ground track
Ground track

The orbit data is extracted from the following two-line orbital elements,

1 28095U 03054A   16267.91131126 0.00000000  00000-0  00000-0 0    05
2 28095  63.4254 271.9481 0279000 358.0451   1.9549 13.41339630    07
Epoch (UTC): 23 September 2016 21:52:17
Eccentricity: 0.0279000
inclination: 63.4254°
perigee height: 895 km
apogee height: 1313 km
right ascension of ascending node: 271.9481°
argument of perigee: 358.0451°
revolutions per day: 13.41339630
mean anomaly at epoch: 1.9549°
orbit number at epoch: 0

The dashed part of the orbit path shows where the satellite is in the earth's shadow,  

DLR